This is the latest recevied weather packets stored in our database for station/object KC3ELT-10. If no packets are shown the sender has not sent any weather packets the latest 10 day(s).
| Time | Temp. | Humidity | Pressure | Rain* | Wind** | Luminosity | Snow |
|---|---|---|---|---|---|---|---|
| 1777255040 | 8.33° C | 78% | 1016.8 hPa | 0 mm | 0.45 m/s, 158° | - | - |
| 1777254740 | 8.33° C | 78% | 1016.8 hPa | 0 mm | 0.45 m/s, 210° | - | - |
| 1777254439 | 8.33° C | 77% | 1016.8 hPa | 0 mm | 0.45 m/s, 176° | - | - |
| 1777254139 | 8.33° C | 77% | 1016.8 hPa | 0 mm | 0.45 m/s, 172° | - | - |
| 1777253840 | 8.89° C | 77% | 1016.8 hPa | 0 mm | 0.89 m/s, 155° | - | - |
| 1777253539 | 8.89° C | 77% | 1016.8 hPa | 0 mm | 0.45 m/s, 158° | - | - |
| 1777253240 | 8.89° C | 77% | 1016.5 hPa | 0 mm | 0.45 m/s, 160° | - | - |
| 1777252939 | 8.89° C | 77% | 1016.5 hPa | 0 mm | 0.89 m/s, 176° | - | - |
| 1777252639 | 8.89° C | 77% | 1016.5 hPa | 0 mm | 0.45 m/s, 169° | - | - |
| 1777252339 | 8.89° C | 78% | 1016.3 hPa | 0 mm | 2.24 m/s, 160° | - | - |
| 1777252039 | 8.89° C | 78% | 1016.3 hPa | 0 mm | 1.34 m/s, 155° | - | - |
| 1777251739 | 8.89° C | 77% | 1016.3 hPa | 0 mm | 1.34 m/s, 154° | - | - |
| 1777251440 | 9.44° C | 77% | 1016 hPa | 0 mm | 1.34 m/s, 158° | - | - |
| 1777251139 | 9.44° C | 77% | 1016 hPa | 0 mm | 0.45 m/s, 165° | - | - |
| 1777250839 | 9.44° C | 77% | 1016 hPa | 0 mm | 0.89 m/s, 154° | - | - |
| 1777250539 | 9.44° C | 77% | 1015.8 hPa | 0 mm | 0.89 m/s, 147° | - | - |
| 1777250240 | 9.44° C | 77% | 1015.8 hPa | 0 mm | 0.45 m/s, 157° | - | - |
| 1777249939 | 9.44° C | 77% | 1015.8 hPa | 0 mm | 0 m/s | - | - |
| 1777249639 | 9.44° C | 76% | 1015.6 hPa | 0 mm | 0 m/s | - | - |
| 1777249339 | 10° C | 76% | 1015.6 hPa | 0 mm | 0 m/s | - | - |
| 1777249040 | 10° C | 76% | 1015.6 hPa | 0 mm | 0 m/s | - | - |
| 1777248740 | 10° C | 76% | 1015.2 hPa | 0 mm | 0 m/s | - | - |
| 1777248439 | 10° C | 75% | 1015.2 hPa | 0 mm | 0.89 m/s, 150° | - | - |
| 1777248140 | 10° C | 75% | 1015.2 hPa | 0 mm | 0 m/s | - | - |
* Rain latest hour (hover to see other rain measurements)
** Current wind speed in m/s (hover to see current wind gust speed)